| time (UTC) | temp F | wind direction | speed knots | gust knots | rain 1hr in | rain 24hr in | rain mn in | humidity % | barometer mb |
| 20260504081604 | 48 | 278 | 0.0 | 1.7 | 0.00 | 0.00 | 0.00 | 56 | 999.9 |
| 20260504070108 | 48 | 292 | 0.0 | 0.9 | 0.00 | 0.00 | 0.00 | 55 | 1001.1 |
| 20260504060127 | 47 | 0 | 0.0 | 0.9 | 0.00 | 0.00 | 0.00 | 55 | 1002.2 |
| 20260504050115 | 47 | 289 | 0.9 | 1.7 | 0.00 | 0.00 | 0.00 | 55 | 1002.9 |
| 20260504044559 | 47 | 283 | 0.0 | 1.7 | 0.00 | 0.00 | 0.00 | 55 | 1003.1 |
| 20260504043108 | 47 | 291 | 0.0 | 1.7 | 0.00 | 0.00 | 0.00 | 52 | 1003.3 |
| 20260504041557 | 48 | 0 | 0.0 | 2.6 | 0.00 | 0.00 | 0.00 | 50 | 1003.4 |
| 20260504040109 | 47 | 266 | 0.0 | 0.9 | 0.00 | 0.00 | 0.00 | 50 | 1003.9 |
| 20260504034601 | 46 | 0 | 0.0 | 0.0 | 0.00 | 0.00 | 0.00 | 55 | 1004.0 |
| 20260504033107 | 49 | 0 | 0.0 | 0.0 | 0.00 | 0.00 | 0.00 | 50 | 1004.3 |
| 20260504031605 | 48 | 0 | 0.0 | 0.0 | 0.00 | 0.00 | 0.00 | 50 | 1004.5 |
| 20260504030059 | 50 | 0 | 0.0 | 0.0 | 0.00 | 0.00 | 0.00 | 47 | 1004.8 |
| 20260504024601 | 52 | 0 | 0.0 | 0.9 | 0.00 | 0.00 | 0.00 | 44 | 1004.9 |
| 20260504023059 | 51 | 0 | 0.0 | 0.0 | 0.00 | 0.00 | 0.00 | 44 | 1005.0 |
| 20260504021558 | 52 | 0 | 0.0 | 0.0 | 0.00 | 0.00 | 0.00 | 43 | 1005.0 |
| 20260504020100 | 53 | 0 | 0.0 | 0.0 | 0.00 | 0.00 | 0.00 | 41 | 1005.3 |
| 20260504014604 | 55 | 0 | 0.0 | 0.0 | 0.00 | 0.00 | 0.00 | 38 | 1005.2 |
| 20260504013113 | 57 | 0 | 0.0 | 0.9 | 0.00 | 0.00 | 0.00 | 34 | 1005.3 |
| 20260504011600 | 60 | 0 | 0.0 | 1.7 | 0.00 | 0.00 | 0.00 | 31 | 1005.4 |
| 20260504010116 | 64 | 285 | 0.9 | 4.3 | 0.00 | 0.00 | 0.00 | 29 | 1005.4 |
| 20260504004600 | 66 | 277 | 2.6 | 5.2 | 0.00 | 0.00 | 0.00 | 26 | 1005.4 |
| 20260504003103 | 67 | 288 | 4.3 | 7.0 | 0.00 | 0.00 | 0.00 | 24 | 1005.3 |
| 20260504001608 | 68 | 285 | 4.3 | 7.8 | 0.00 | 0.00 | 0.00 | 22 | 1005.5 |
| 20260504000101 | 69 | 292 | 3.5 | 9.6 | 0.00 | 0.00 | 0.00 | 24 | 1005.7 |
| 20260503234600 | 69 | 268 | 6.1 | 10.4 | 0.00 | 0.00 | 0.00 | 24 | 1005.9 |
| 20260503233104 | 69 | 276 | 5.2 | 11.3 | 0.00 | 0.00 | 0.00 | 25 | 1006.3 |
| 20260503231600 | 70 | 285 | 5.2 | 10.4 | 0.00 | 0.00 | 0.00 | 27 | 1006.5 |
| 20260503230100 | 70 | 287 | 4.3 | 8.7 | 0.00 | 0.00 | 0.00 | 26 | 1006.6 |
| 20260503224603 | 70 | 281 | 5.2 | 11.3 | 0.00 | 0.00 | 0.00 | 26 | 1006.6 |
| 20260503223103 | 70 | 269 | 5.2 | 9.6 | 0.00 | 0.00 | 0.00 | 28 | 1006.7 |
| 20260503221606 | 69 | 297 | 6.1 | 10.4 | 0.00 | 0.00 | 0.00 | 26 | 1006.8 |
| 20260503220104 | 70 | 272 | 4.3 | 13.0 | 0.00 | 0.00 | 0.00 | 28 | 1006.9 |
| 20260503214558 | 69 | 303 | 6.1 | 8.7 | 0.00 | 0.00 | 0.00 | 29 | 1007.0 |
| 20260503213100 | 69 | 310 | 4.3 | 11.3 | 0.00 | 0.00 | 0.00 | 29 | 1007.4 |
| 20260503211559 | 69 | 295 | 4.3 | 10.4 | 0.00 | 0.00 | 0.00 | 27 | 1007.6 |
| 20260503210101 | 68 | 297 | 5.2 | 11.3 | 0.00 | 0.00 | 0.00 | 27 | 1007.9 |
| 20260503204610 | 68 | 299 | 4.3 | 13.0 | 0.00 | 0.00 | 0.00 | 27 | 1008.0 |
| 20260503203106 | 68 | 276 | 6.1 | 13.0 | 0.00 | 0.00 | 0.00 | 31 | 1008.2 |
| 20260503201559 | 68 | 281 | 5.2 | 12.2 | 0.00 | 0.00 | 0.00 | 29 | 1008.6 |
| 20260503200100 | 67 | 304 | 4.3 | 11.3 | 0.00 | 0.00 | 0.00 | 30 | 1008.8 |
| 20260503194624 | 67 | 314 | 6.1 | 13.0 | 0.00 | 0.00 | 0.00 | 31 | 1008.9 |
| 20260503193058 | 67 | 288 | 5.2 | 10.4 | 0.00 | 0.00 | 0.00 | 32 | 1008.9 |
| 20260503191604 | 66 | 293 | 5.2 | 14.8 | 0.00 | 0.00 | 0.00 | 31 | 1009.0 |
| 20260503184600 | 66 | 320 | 7.8 | 15.6 | 0.00 | 0.00 | 0.00 | 34 | 1009.5 |
| 20260503183107 | 65 | 333 | 5.2 | 13.9 | 0.00 | 0.00 | 0.00 | 32 | 1009.8 |
| 20260503181558 | 65 | 332 | 7.0 | 13.9 | 0.00 | 0.00 | 0.00 | 33 | 1010.0 |
| 20260503180108 | 65 | 329 | 7.8 | 14.8 | 0.00 | 0.00 | 0.00 | 34 | 1010.2 |
| 20260503174557 | 65 | 328 | 7.8 | 13.9 | 0.00 | 0.00 | 0.00 | 36 | 1010.2 |
| 20260503173203 | 64 | 14 | 6.1 | 17.4 | 0.00 | 0.00 | 0.00 | 36 | 1010.4 |
| 20260503171559 | 64 | 332 | 6.1 | 14.8 | 0.00 | 0.00 | 0.00 | 39 | 1010.7 |
| 20260503140104 | 54 | 295 | 3.5 | 7.8 | 0.00 | 0.00 | 0.00 | 62 | 1010.8 |